Change the Weather History Date:

Sunday, November 11, 2012

  Actual Average Record
Temperature  
Mean Temperature 41 °F -  
Max Temperature 59 °F 39 °F 64 °F (1923)
Min Temperature 23 °F 24 °F -7 °F (1986)
Degree Days  
Heating Degree Days 24    
Moisture  
Dew Point 28 °F    
Average Humidity 77    
Maximum Humidity 93    
Minimum Humidity 59    
Precipitation  
Precipitation 0.05 in - - ()
Sea Level Pressure  
Sea Level Pressure 29.81 in    
Wind  
Wind Speed 15 mph (West)    
Max Wind Speed 23 mph    
Max Gust Speed 33 mph    
Visibility 8 miles    
Events Rain , Snow    
Averages and records for this station are not official NWS values.
T = Trace of Precipitation, MM = Missing Value Source: NWS Daily Summary

Daily Weather History Graph

Daily Weather History Graph

Search for Another Location

Airport or City:

Trip Planner

Search our weather history database for the weather conditions in past years. The results will help you decide how hot, cold, wet, or windy it might be!

Date:

Astronomy

Nov. 11, 2012 Rise Set
Actual Time 7:04 AM CST 4:51 PM CST
Civil Twilight 6:33 AM CST 5:22 PM CST
Nautical Twilight 5:59 AM CST 5:56 PM CST
Astronomical Twilight 5:25 AM CST 6:30 PM CST
Moon 4:15 AM CST (11/11) 3:18 PM CST (11/11)
Length of Visible Light 10h 48m
Length of Day
9h 46m
Waning Crescent, 7% of the Moon is Illuminated
Nov 11
Waning Crescent
Nov 13
New
Nov 20
First Quarter
Nov 28
Full
Dec 6
Last Quarter

Hourly Weather History & Observations

Time (CST) Temp. Windchill Dew Point Humidity Pressure Visibility Wind Dir Wind Speed Gust Speed Precip Events Conditions
12:13 AM 55.4 °F - 51.8 °F 88% 29.59 in 10.0 mi South 9.2 mph - 0.01 in Rain Light Rain
12:33 AM 55.4 °F - 51.8 °F 88% 29.59 in 10.0 mi South 8.1 mph - 0.01 in   Light Drizzle
12:52 AM 55.4 °F - 51.8 °F 88% 29.57 in 10.0 mi SSE 6.9 mph - 0.01 in Rain Light Rain
1:13 AM 55.4 °F - 51.8 °F 88% 29.59 in 7.0 mi South 12.7 mph - 0.01 in Rain Light Rain
1:33 AM 59.0 °F - 51.8 °F 77% 29.61 in 10.0 mi South 12.7 mph - 0.01 in   Overcast
1:52 AM 59.0 °F - 51.8 °F 77% 29.59 in 10.0 mi SW 17.3 mph 25.3 mph 0.01 in   Light Drizzle
2:13 AM 53.6 °F - 48.2 °F 82% 29.61 in 10.0 mi WSW 12.7 mph 25.3 mph N/A   Overcast
2:33 AM 53.6 °F - 46.4 °F 77% 29.63 in 7.0 mi West 17.3 mph 24.2 mph N/A Rain Rain
2:52 AM 50.0 °F - 42.8 °F 76% 29.65 in 10.0 mi West 13.8 mph 21.9 mph N/A   Overcast
3:13 AM 46.4 °F 39.0 °F 41.0 °F 81% 29.65 in 10.0 mi WNW 19.6 mph 24.2 mph N/A   Overcast
3:33 AM 44.6 °F 38.4 °F 41.0 °F 87% 29.66 in 10.0 mi West 12.7 mph - N/A   Overcast
3:53 AM 44.6 °F 38.8 °F 41.0 °F 87% 29.66 in 7.0 mi West 11.5 mph - N/A   Overcast
4:12 AM 44.6 °F 38.8 °F 39.2 °F 81% 29.66 in 10.0 mi West 11.5 mph - N/A   Overcast
4:33 AM 42.8 °F 35.8 °F 37.4 °F 81% 29.68 in 1.8 mi WNW 13.8 mph - N/A   Haze
4:53 AM 41.0 °F 33.9 °F 35.6 °F 81% 29.69 in 2.0 mi WNW 12.7 mph - N/A   Haze
5:33 AM 39.2 °F 30.8 °F 33.8 °F 81% 29.71 in 2.0 mi WNW 15.0 mph - 0.02 in   Drizzle
5:53 AM 39.2 °F 31.2 °F 33.8 °F 81% 29.71 in 2.5 mi WNW 13.8 mph 18.4 mph 0.02 in Rain Rain
6:13 AM 39.2 °F 32.0 °F 33.8 °F 81% 29.73 in 2.5 mi WNW 11.5 mph - N/A Rain Rain
6:53 AM 35.6 °F 25.2 °F 32.0 °F 87% 29.74 in 3.0 mi WNW 18.4 mph 23.0 mph 0.01 in   Light Drizzle
7:33 AM 33.8 °F 23.2 °F 32.0 °F 93% 29.76 in 4.0 mi WNW 17.3 mph - N/A   Overcast
7:53 AM 33.8 °F 22.8 °F 32.0 °F 93% 29.78 in 2.5 mi West 18.4 mph 23.0 mph N/A   Overcast
8:13 AM 33.8 °F 24.3 °F 32.0 °F 93% 29.77 in 2.5 mi WNW 13.8 mph - N/A   Overcast
8:53 AM 33.8 °F 24.3 °F 30.2 °F 87% 29.78 in 10.0 mi WNW 13.8 mph 19.6 mph N/A   Overcast
9:13 AM 33.8 °F 23.2 °F 30.2 °F 87% 29.77 in 10.0 mi WNW 17.3 mph 23.0 mph N/A   Overcast
9:33 AM 33.8 °F 23.5 °F 30.2 °F 87% 29.77 in 10.0 mi WNW 16.1 mph 23.0 mph N/A   Overcast
9:53 AM 33.8 °F 23.2 °F 30.2 °F 87% 29.80 in 10.0 mi WNW 17.3 mph - N/A   Overcast
10:13 AM 33.8 °F 23.9 °F 30.2 °F 87% 29.82 in 7.0 mi West 15.0 mph - N/A   Overcast
10:33 AM 33.8 °F 23.2 °F 30.2 °F 87% 29.82 in 1.2 mi West 17.3 mph - N/A   Overcast
10:53 AM 33.8 °F 23.9 °F 30.2 °F 87% 29.81 in 1.8 mi WNW 15.0 mph - N/A   Haze
11:13 AM 32.0 °F 21.2 °F 28.4 °F 87% 29.81 in 7.0 mi WNW 16.1 mph - N/A   Overcast
11:33 AM 32.0 °F 21.2 °F 28.4 °F 87% 29.82 in 5.0 mi WNW 16.1 mph - N/A   Haze
12:13 PM 32.0 °F 20.8 °F 28.4 °F 87% 29.79 in 7.0 mi WNW 17.3 mph 21.9 mph N/A   Overcast
12:32 PM 32.0 °F 21.2 °F 26.6 °F 80% 29.81 in 10.0 mi WNW 16.1 mph - N/A   Overcast
12:53 PM 32.0 °F 21.2 °F 26.6 °F 80% 29.81 in 10.0 mi West 16.1 mph 23.0 mph N/A   Overcast
1:13 PM 32.0 °F 20.5 °F 26.6 °F 80% 29.83 in 10.0 mi West 18.4 mph - N/A   Overcast
1:33 PM 32.0 °F 20.5 °F 26.6 °F 80% 29.80 in 7.0 mi WNW 18.4 mph 21.9 mph N/A   Overcast
1:53 PM 32.0 °F 21.2 °F 26.6 °F 80% 29.79 in 10.0 mi WNW 16.1 mph - N/A   Overcast
2:13 PM 32.0 °F 20.5 °F 26.6 °F 80% 29.82 in 10.0 mi West 18.4 mph - N/A   Overcast
2:33 PM 32.0 °F 21.2 °F 26.6 °F 80% 29.83 in 10.0 mi West 16.1 mph - N/A   Overcast
2:53 PM 30.2 °F 18.5 °F 23.0 °F 75% 29.83 in 10.0 mi West 17.3 mph - N/A   Overcast
3:13 PM 30.2 °F 17.4 °F 23.0 °F 75% 29.83 in 10.0 mi West 20.7 mph 26.5 mph N/A   Overcast
3:33 PM 30.2 °F 18.1 °F 23.0 °F 75% 29.84 in 10.0 mi West 18.4 mph 24.2 mph N/A   Overcast
3:53 PM 30.2 °F 19.3 °F 23.0 °F 75% 29.85 in 10.0 mi WNW 15.0 mph 21.9 mph N/A   Overcast
4:13 PM 30.2 °F 18.5 °F 21.2 °F 69% 29.86 in 10.0 mi West 17.3 mph - N/A   Overcast
4:33 PM 30.2 °F 18.9 °F 23.0 °F 75% 29.86 in 10.0 mi West 16.1 mph - N/A   Overcast
4:53 PM 30.2 °F 18.1 °F 21.2 °F 69% 29.86 in 10.0 mi West 18.4 mph 21.9 mph N/A   Overcast
5:13 PM 30.2 °F 18.5 °F 21.2 °F 69% 29.88 in 10.0 mi West 17.3 mph 24.2 mph N/A   Overcast
5:33 PM 30.2 °F 17.4 °F 21.2 °F 69% 29.89 in 10.0 mi West 20.7 mph - N/A   Overcast
5:53 PM 28.4 °F 15.4 °F 19.4 °F 69% 29.91 in 10.0 mi West 19.6 mph 26.5 mph N/A   Overcast
6:13 PM 28.4 °F 15.4 °F 19.4 °F 69% 29.91 in 10.0 mi West 19.6 mph 25.3 mph N/A   Overcast
6:33 PM 28.4 °F 14.4 °F 19.4 °F 69% 29.92 in 10.0 mi WNW 23.0 mph 27.6 mph N/A   Overcast
6:53 PM 28.4 °F 15.8 °F 17.6 °F 64% 29.93 in 10.0 mi West 18.4 mph 23.0 mph N/A   Overcast
7:13 PM 28.4 °F 17.0 °F 17.6 °F 64% 29.94 in 10.0 mi West 15.0 mph 25.3 mph N/A   Overcast
7:33 PM 28.4 °F 14.4 °F 17.6 °F 64% 29.94 in 10.0 mi West 23.0 mph 26.5 mph N/A   Overcast
7:53 PM 26.6 °F 13.1 °F 15.8 °F 64% 29.95 in 10.0 mi West 19.6 mph 26.5 mph N/A   Overcast
8:13 PM 26.6 °F 13.4 °F 15.8 °F 64% 29.96 in 10.0 mi West 18.4 mph 25.3 mph N/A   Overcast
8:33 PM 26.6 °F 12.0 °F 15.8 °F 64% 29.97 in 10.0 mi West 23.0 mph 26.5 mph N/A   Overcast
8:53 PM 26.6 °F 12.7 °F 14.0 °F 59% 29.97 in 10.0 mi West 20.7 mph 24.2 mph N/A   Overcast
9:13 PM 24.8 °F 10.0 °F 14.0 °F 64% 29.98 in 10.0 mi West 21.9 mph 33.4 mph N/A   Mostly Cloudy
9:33 PM 24.8 °F 10.3 °F 14.0 °F 64% 29.98 in 10.0 mi West 20.7 mph 26.5 mph N/A   Scattered Clouds
9:53 PM 24.8 °F 10.0 °F 14.0 °F 64% 29.99 in 10.0 mi West 21.9 mph 27.6 mph N/A   Mostly Cloudy
10:12 PM 23.0 °F 7.6 °F 14.0 °F 68% 29.99 in 10.0 mi West 21.9 mph 27.6 mph N/A   Overcast
10:33 PM 24.8 °F 11.1 °F 14.0 °F 64% 29.99 in 10.0 mi West 18.4 mph 24.2 mph N/A   Overcast
10:53 PM 24.8 °F 12.9 °F 14.0 °F 64% 29.99 in 10.0 mi West 13.8 mph - N/A   Overcast
11:13 PM 24.8 °F 12.9 °F 15.8 °F 69% 29.99 in 10.0 mi West 13.8 mph - N/A Snow Light Snow
11:33 PM 24.8 °F 12.9 °F 17.6 °F 74% 29.99 in 7.0 mi West 13.8 mph 19.6 mph N/A Snow Light Snow
11:53 PM 24.8 °F 12.9 °F 15.8 °F 69% 29.99 in 10.0 mi West 13.8 mph 19.6 mph N/A Snow Light Snow